カタログに戻る

SDA_1674

運用中軍事PO
NORAD 65984·PAYLOAD·🇺🇸 United States

打ち上げ Oct 15, 2025 から Vandenberg Space Force Base

Loading…

次のパス (今後24時間)

TLE

最新Source: Space-Track

元期: Sep 14, 2026, 14:56 UTC

1 65984U 25230L   26257.62225938  .00000122  00000-0  10258-3 0  9997
2 65984  81.2996 129.1926 0001710  33.2394 326.8869 13.82090036 46163

AllMySatでSDA_1674をリアルタイム追跡

Download on the App Store